CMP21V SKPS-MPTO

Flight info

Callsign CMP21V
Flight time 1h 40m
Altitude 34000
Route MER7 MER DCT BUSMO DCT IRATA/N0453F330 DCT ISOKO
Aircraft B38M/M-SDE1FGHILORVWXY/HB1

Departure

Time 2026-04-26 14:25
Airport Antonio Nariño Airport (SKPS)

Arrival

Time 2026-04-26 16:06
Airport Tocumen International Airport (MPTO)
Time Latitude Longitude Altitude Speed Heading
2026-04-26 14:13 1.39543 -77.28996 5910 ft 0 kts 105°
2026-04-26 14:17 1.39546 -77.29009 5911 ft 4 kts 110°
2026-04-26 14:17 1.39559 -77.29029 5911 ft 4 kts 152°
2026-04-26 14:17 1.39574 -77.29031 5910 ft 0 kts 195°
2026-04-26 14:21 1.39568 -77.29033 5910 ft 3 kts 195°
2026-04-26 14:21 1.39521 -77.29049 5911 ft 11 kts 222°
2026-04-26 14:21 1.39515 -77.29127 5916 ft 14 kts 250°
2026-04-26 14:21 1.39440 -77.29157 5920 ft 14 kts 192°
2026-04-26 14:22 1.39331 -77.29183 5927 ft 18 kts 194°
2026-04-26 14:22 1.39191 -77.29217 5931 ft 23 kts 195°
2026-04-26 14:22 1.39022 -77.29272 5941 ft 26 kts 193°
2026-04-26 14:22 1.38834 -77.29314 5950 ft 27 kts 194°
2026-04-26 14:23 1.38745 -77.29336 5954 ft 8 kts 191°
2026-04-26 14:23 1.38700 -77.29340 5964 ft 4 kts 178°
2026-04-26 14:23 1.38690 -77.29341 5960 ft 0 kts 197°
2026-04-26 14:23 1.38687 -77.29343 5960 ft 1 kts 217°
2026-04-26 14:24 1.38693 -77.29359 5963 ft 4 kts 324°
2026-04-26 14:24 1.38706 -77.29357 5961 ft 0 kts 23°
2026-04-26 14:24 1.38818 -77.29320 5951 ft 51 kts 14°
2026-04-26 14:24 1.39393 -77.29166 5923 ft 118 kts 14°
2026-04-26 14:25 1.40379 -77.28906 5882 ft 169 kts 14°
2026-04-26 14:25 1.41599 -77.28597 6023 ft 197 kts
2026-04-26 14:25 1.42973 -77.28480 6763 ft 184 kts
2026-04-26 14:25 1.44237 -77.28418 7508 ft 188 kts
2026-04-26 14:26 1.45626 -77.28335 7793 ft 210 kts
2026-04-26 14:26 1.47154 -77.28234 8051 ft 239 kts
2026-04-26 14:26 1.48897 -77.28112 8449 ft 261 kts
2026-04-26 14:26 1.50777 -77.27976 8944 ft 280 kts
2026-04-26 14:27 1.52785 -77.27827 9516 ft 296 kts
2026-04-26 14:27 1.54854 -77.27672 10297 ft 304 kts
2026-04-26 14:27 1.57027 -77.27508 10736 ft 322 kts
2026-04-26 14:27 1.59314 -77.27335 11271 ft 335 kts
2026-04-26 14:28 1.61593 -77.26811 12015 ft 336 kts 25°
2026-04-26 14:28 1.63579 -77.25610 12748 ft 341 kts 34°
2026-04-26 14:28 1.65560 -77.24273 13437 ft 345 kts 34°
2026-04-26 14:28 1.67560 -77.22906 14144 ft 349 kts 34°
2026-04-26 14:29 1.69570 -77.21521 14781 ft 353 kts 34°
2026-04-26 14:29 1.71598 -77.20115 15423 ft 356 kts 34°
2026-04-26 14:29 1.73646 -77.18692 16059 ft 359 kts 34°
2026-04-26 14:29 1.75709 -77.17259 16670 ft 363 kts 34°
2026-04-26 14:30 1.77971 -77.16153 17263 ft 365 kts 15°
2026-04-26 14:30 1.80486 -77.15821 17830 ft 367 kts 357°
2026-04-26 14:30 1.83025 -77.16208 18377 ft 370 kts 348°
2026-04-26 14:30 1.85525 -77.16745 18846 ft 374 kts 347°
2026-04-26 14:31 1.88076 -77.17319 19343 ft 376 kts 347°
2026-04-26 14:31 1.90639 -77.17912 19799 ft 379 kts 347°
2026-04-26 14:31 1.93221 -77.18520 20257 ft 382 kts 347°
2026-04-26 14:31 1.95825 -77.19138 20731 ft 385 kts 347°
2026-04-26 14:32 1.98438 -77.19761 21180 ft 388 kts 347°
2026-04-26 14:32 2.01073 -77.20389 21642 ft 390 kts 347°
2026-04-26 14:32 2.03728 -77.21022 22088 ft 393 kts 347°
2026-04-26 14:32 2.06398 -77.21660 22538 ft 396 kts 347°
2026-04-26 14:33 2.09091 -77.22302 22983 ft 399 kts 347°
2026-04-26 14:33 2.11795 -77.22947 23401 ft 402 kts 347°
2026-04-26 14:33 2.14525 -77.23599 23788 ft 404 kts 347°
2026-04-26 14:33 2.17237 -77.24246 24138 ft 407 kts 347°
2026-04-26 14:34 2.19997 -77.24904 24477 ft 410 kts 347°
2026-04-26 14:34 2.22781 -77.25568 24810 ft 412 kts 347°
2026-04-26 14:34 2.25579 -77.26237 25142 ft 415 kts 347°
2026-04-26 14:34 2.28408 -77.26913 25473 ft 418 kts 347°
2026-04-26 14:35 2.31250 -77.27591 25814 ft 421 kts 347°
2026-04-26 14:35 2.34104 -77.28272 26150 ft 423 kts 347°
2026-04-26 14:35 2.36982 -77.28959 26512 ft 425 kts 347°
2026-04-26 14:35 2.39869 -77.29648 26831 ft 428 kts 347°
2026-04-26 14:36 2.42737 -77.30333 27159 ft 430 kts 347°
2026-04-26 14:36 2.45656 -77.31030 27487 ft 432 kts 347°
2026-04-26 14:36 2.48597 -77.31732 27806 ft 435 kts 347°
2026-04-26 14:36 2.51546 -77.32436 28124 ft 437 kts 347°
2026-04-26 14:37 2.54523 -77.33147 28398 ft 440 kts 347°
2026-04-26 14:37 2.57510 -77.33860 28684 ft 442 kts 347°
2026-04-26 14:37 2.60516 -77.34578 28986 ft 444 kts 347°
2026-04-26 14:37 2.63502 -77.35292 29280 ft 446 kts 347°
2026-04-26 14:38 2.66538 -77.36016 29597 ft 448 kts 347°
2026-04-26 14:38 2.69589 -77.36745 29860 ft 451 kts 347°
2026-04-26 14:38 2.72648 -77.37476 30102 ft 453 kts 347°
2026-04-26 14:38 2.74682 -77.37962 30258 ft 454 kts 347°
2026-04-26 14:39 2.78765 -77.38937 30573 ft 457 kts 347°
2026-04-26 14:39 2.81863 -77.39677 30811 ft 458 kts 347°
2026-04-26 14:39 2.84978 -77.40421 31031 ft 460 kts 347°
2026-04-26 14:39 2.88105 -77.41169 31260 ft 462 kts 347°
2026-04-26 14:40 2.91243 -77.41918 31486 ft 464 kts 347°
2026-04-26 14:40 2.94397 -77.42672 31711 ft 466 kts 347°
2026-04-26 14:40 2.97560 -77.43428 31931 ft 468 kts 347°
2026-04-26 14:40 3.00696 -77.44178 32158 ft 470 kts 347°
2026-04-26 14:41 3.03878 -77.44938 32368 ft 471 kts 347°
2026-04-26 14:41 3.07088 -77.45705 32595 ft 473 kts 347°
2026-04-26 14:41 3.10300 -77.46473 32808 ft 475 kts 347°
2026-04-26 14:41 3.13517 -77.47242 33058 ft 475 kts 347°
2026-04-26 14:42 3.16737 -77.48011 33333 ft 475 kts 347°
2026-04-26 14:42 3.19958 -77.48781 33629 ft 475 kts 347°
2026-04-26 14:42 3.23173 -77.49550 33896 ft 475 kts 347°
2026-04-26 14:43 3.29570 -77.51080 33962 ft 473 kts 347°
2026-04-26 14:43 3.35979 -77.52612 33964 ft 473 kts 347°
2026-04-26 14:44 3.41303 -77.53886 33961 ft 473 kts 347°
2026-04-26 14:44 3.47712 -77.55419 33962 ft 473 kts 347°
2026-04-26 14:45 3.54075 -77.56941 33968 ft 473 kts 347°
2026-04-26 14:45 3.60479 -77.58473 33967 ft 473 kts 347°
2026-04-26 14:46 3.66852 -77.59998 33968 ft 472 kts 347°
2026-04-26 14:46 3.73229 -77.61525 33967 ft 469 kts 346°
2026-04-26 14:47 3.79590 -77.63047 33963 ft 468 kts 346°
2026-04-26 14:47 3.85925 -77.64563 33963 ft 468 kts 346°
2026-04-26 14:48 3.92235 -77.66074 33967 ft 468 kts 346°
2026-04-26 14:48 3.98575 -77.67590 33964 ft 468 kts 346°
2026-04-26 14:49 4.04931 -77.69115 33961 ft 468 kts 346°
2026-04-26 14:49 4.11271 -77.70634 33965 ft 468 kts 346°
2026-04-26 14:50 4.17558 -77.72140 33955 ft 466 kts 346°
2026-04-26 14:50 4.23863 -77.73651 33962 ft 466 kts 346°
2026-04-26 14:51 4.30176 -77.75164 33964 ft 466 kts 346°
2026-04-26 14:51 4.36457 -77.76670 33962 ft 466 kts 346°
2026-04-26 14:52 4.42767 -77.78182 33958 ft 466 kts 346°
2026-04-26 14:52 4.49076 -77.79695 33959 ft 466 kts 347°
2026-04-26 14:53 4.55395 -77.81211 33961 ft 467 kts 347°
2026-04-26 14:53 4.61718 -77.82728 33959 ft 467 kts 347°
2026-04-26 14:54 4.68007 -77.84237 33962 ft 467 kts 347°
2026-04-26 14:54 4.74332 -77.85754 33960 ft 467 kts 347°
2026-04-26 14:55 4.80661 -77.87273 33959 ft 467 kts 347°
2026-04-26 14:55 4.86982 -77.88791 33962 ft 467 kts 346°
2026-04-26 14:56 4.93268 -77.90300 33961 ft 467 kts 346°
2026-04-26 14:56 4.99596 -77.91820 33960 ft 467 kts 346°
2026-04-26 14:57 5.05921 -77.93339 33961 ft 467 kts 346°
2026-04-26 14:57 5.12215 -77.94851 33961 ft 467 kts 346°
2026-04-26 14:58 5.18541 -77.96372 33964 ft 466 kts 346°
2026-04-26 14:58 5.24855 -77.97890 33960 ft 467 kts 345°
2026-04-26 14:59 5.31171 -77.99407 33960 ft 467 kts 345°
2026-04-26 14:59 5.37499 -78.00929 33961 ft 467 kts 345°
2026-04-26 15:00 5.43784 -78.02440 33961 ft 467 kts 345°
2026-04-26 15:00 5.50112 -78.03962 33964 ft 467 kts 345°
2026-04-26 15:01 5.56441 -78.05485 33964 ft 467 kts 345°
2026-04-26 15:01 5.62728 -78.06998 33959 ft 468 kts 346°
2026-04-26 15:02 5.69073 -78.08525 33961 ft 469 kts 346°
2026-04-26 15:02 5.75413 -78.10052 33961 ft 469 kts 346°
2026-04-26 15:03 5.81762 -78.11581 33958 ft 469 kts 346°
2026-04-26 15:03 5.88109 -78.13110 33958 ft 469 kts 346°
2026-04-26 15:04 5.94420 -78.14630 33958 ft 469 kts 346°
2026-04-26 15:04 6.00770 -78.16161 33961 ft 470 kts 346°
2026-04-26 15:05 6.07135 -78.17695 33955 ft 471 kts 346°
2026-04-26 15:05 6.13518 -78.19234 33958 ft 470 kts 346°
2026-04-26 15:06 6.19892 -78.20771 33960 ft 470 kts 346°
2026-04-26 15:06 6.26222 -78.22298 33961 ft 470 kts 346°
2026-04-26 15:07 6.35786 -78.24605 33958 ft 471 kts 346°
2026-04-26 15:07 6.42169 -78.26146 33959 ft 472 kts 346°
2026-04-26 15:08 6.48556 -78.27688 33958 ft 472 kts 346°
2026-04-26 15:08 6.54902 -78.29221 33958 ft 472 kts 346°
2026-04-26 15:09 6.61295 -78.30765 33958 ft 472 kts 346°
2026-04-26 15:09 6.67685 -78.32309 33958 ft 472 kts 346°
2026-04-26 15:10 6.72834 -78.34024 33941 ft 468 kts 329°
2026-04-26 15:10 6.79374 -78.37902 33953 ft 469 kts 328°
2026-04-26 15:11 6.84983 -78.41274 33957 ft 469 kts 328°
2026-04-26 15:11 6.90586 -78.44663 33957 ft 469 kts 328°
2026-04-26 15:12 6.96184 -78.48050 33956 ft 469 kts 328°
2026-04-26 15:12 7.01737 -78.51411 33955 ft 469 kts 328°
2026-04-26 15:13 7.07336 -78.54800 33954 ft 469 kts 328°
2026-04-26 15:13 7.12926 -78.58185 33956 ft 469 kts 328°
2026-04-26 15:14 7.18515 -78.61571 33958 ft 469 kts 328°
2026-04-26 15:14 7.24105 -78.64958 33954 ft 469 kts 328°
2026-04-26 15:15 7.29688 -78.68341 33960 ft 459 kts 328°
2026-04-26 15:15 7.35097 -78.71621 33952 ft 450 kts 327°
2026-04-26 15:16 7.40431 -78.74856 33952 ft 449 kts 327°
2026-04-26 15:16 7.45805 -78.78116 33952 ft 449 kts 327°
2026-04-26 15:17 7.48616 -78.79507 33936 ft 450 kts 341°
2026-04-26 15:17 7.50630 -78.79993 33941 ft 449 kts 352°
2026-04-26 15:17 7.57921 -78.80385 33948 ft 453 kts 357°
2026-04-26 15:18 7.64227 -78.80612 33952 ft 453 kts 357°
2026-04-26 15:18 7.70528 -78.80820 33951 ft 453 kts 357°
2026-04-26 15:19 7.76846 -78.81023 33952 ft 453 kts 357°
2026-04-26 15:19 7.83159 -78.81226 33955 ft 453 kts 357°
2026-04-26 15:20 7.89425 -78.81426 33957 ft 454 kts 357°
2026-04-26 15:20 7.95747 -78.81628 33956 ft 454 kts 357°
2026-04-26 15:21 8.02063 -78.81830 33953 ft 454 kts 357°
2026-04-26 15:21 8.08380 -78.82032 33951 ft 454 kts 357°
2026-04-26 15:22 8.14693 -78.82234 33955 ft 454 kts 357°
2026-04-26 15:22 8.20971 -78.82436 33954 ft 454 kts 357°
2026-04-26 15:23 8.27291 -78.82643 33958 ft 454 kts 357°
2026-04-26 15:23 8.33619 -78.82855 33957 ft 454 kts 357°
2026-04-26 15:24 8.39949 -78.83068 33953 ft 454 kts 357°
2026-04-26 15:24 8.46225 -78.83280 33953 ft 454 kts 357°
2026-04-26 15:25 8.51484 -78.83458 33954 ft 454 kts 357°
2026-04-26 15:25 8.58875 -78.83706 33953 ft 455 kts 357°
2026-04-26 15:26 8.65201 -78.83912 33950 ft 455 kts 357°
2026-04-26 15:26 8.71537 -78.84120 33948 ft 455 kts 357°
2026-04-26 15:27 8.77874 -78.84328 33950 ft 455 kts 357°
2026-04-26 15:27 8.84160 -78.84534 33947 ft 455 kts 357°
2026-04-26 15:28 8.90488 -78.84742 33947 ft 455 kts 357°
2026-04-26 15:28 8.96830 -78.84941 33950 ft 456 kts 357°
2026-04-26 15:29 9.03177 -78.85131 33952 ft 456 kts 357°
2026-04-26 15:30 9.15831 -78.85509 33951 ft 456 kts 357°
2026-04-26 15:30 9.22175 -78.85699 33951 ft 456 kts 357°
2026-04-26 15:31 9.31691 -78.85985 33952 ft 455 kts 357°
2026-04-26 15:32 9.39057 -78.86193 33950 ft 455 kts 357°
2026-04-26 15:32 9.46452 -78.86403 33950 ft 455 kts 357°
2026-04-26 15:33 9.52787 -78.86583 33949 ft 455 kts 357°
2026-04-26 15:33 9.59114 -78.86762 33950 ft 455 kts 357°
2026-04-26 15:34 9.65403 -78.86941 33959 ft 455 kts 357°
2026-04-26 15:34 9.71736 -78.87124 33949 ft 454 kts 357°
2026-04-26 15:35 9.78056 -78.87307 33946 ft 454 kts 357°
2026-04-26 15:35 9.84374 -78.87489 33953 ft 454 kts 357°
2026-04-26 15:36 9.90654 -78.87671 33959 ft 454 kts 357°
2026-04-26 15:36 9.96969 -78.87855 33958 ft 454 kts 357°
2026-04-26 15:37 10.03291 -78.88038 33958 ft 454 kts 357°
2026-04-26 15:37 10.09597 -78.88196 33952 ft 452 kts 357°
2026-04-26 15:38 10.15882 -78.88352 33959 ft 452 kts 357°
2026-04-26 15:38 10.22130 -78.88508 33958 ft 452 kts 357°
2026-04-26 15:39 10.28414 -78.88666 33958 ft 452 kts 357°
2026-04-26 15:39 10.33651 -78.88799 33958 ft 452 kts 357°
2026-04-26 15:40 10.40997 -78.88991 33963 ft 452 kts 357°
2026-04-26 15:40 10.47246 -78.89172 33959 ft 452 kts 357°
2026-04-26 15:41 10.53537 -78.89356 33958 ft 452 kts 357°
2026-04-26 15:41 10.59830 -78.89541 33958 ft 452 kts 357°
2026-04-26 15:42 10.62965 -78.89669 33849 ft 447 kts 352°
2026-04-26 15:42 10.65886 -78.90443 33174 ft 433 kts 331°
2026-04-26 15:42 10.68307 -78.92183 32362 ft 423 kts 309°
2026-04-26 15:42 10.69881 -78.94646 31556 ft 413 kts 288°
2026-04-26 15:43 10.70542 -78.97452 30817 ft 406 kts 278°
2026-04-26 15:43 10.70987 -79.00271 30107 ft 402 kts 274°
2026-04-26 15:43 10.70088 -79.05752 28454 ft 395 kts 244°
2026-04-26 15:44 10.68592 -79.08083 27675 ft 393 kts 230°
2026-04-26 15:44 10.64269 -79.11344 26189 ft 393 kts 204°
2026-04-26 15:44 10.61651 -79.12116 25472 ft 392 kts 189°
2026-04-26 15:45 10.56214 -79.12495 24104 ft 389 kts 185°
2026-04-26 15:45 10.53513 -79.12685 23425 ft 387 kts 185°
2026-04-26 15:46 10.48190 -79.13092 21901 ft 384 kts 185°
2026-04-26 15:46 10.45536 -79.13293 21234 ft 380 kts 184°
2026-04-26 15:46 10.42918 -79.13465 20787 ft 370 kts 183°
2026-04-26 15:46 10.41238 -79.13568 20558 ft 362 kts 183°
2026-04-26 15:47 10.37936 -79.13767 20079 ft 348 kts 183°
2026-04-26 15:47 10.33218 -79.14058 19380 ft 336 kts 183°
2026-04-26 15:47 10.30889 -79.14233 19023 ft 343 kts 184°
2026-04-26 15:48 10.28499 -79.14430 18659 ft 346 kts 184°
2026-04-26 15:48 10.26099 -79.14623 18303 ft 346 kts 184°
2026-04-26 15:48 10.23699 -79.14812 17907 ft 345 kts 183°
2026-04-26 15:48 10.21314 -79.14998 17533 ft 343 kts 183°
2026-04-26 15:49 10.18937 -79.15177 17164 ft 341 kts 183°
2026-04-26 15:49 10.16574 -79.15354 16805 ft 338 kts 184°
2026-04-26 15:49 10.14232 -79.15530 16460 ft 336 kts 184°
2026-04-26 15:49 10.11907 -79.15707 16114 ft 334 kts 184°
2026-04-26 15:50 10.09594 -79.15882 15774 ft 332 kts 184°
2026-04-26 15:50 10.07326 -79.16053 15438 ft 330 kts 184°
2026-04-26 15:50 10.05048 -79.16225 15099 ft 328 kts 184°
2026-04-26 15:50 10.02779 -79.16398 14764 ft 326 kts 184°
2026-04-26 15:51 10.00522 -79.16570 14420 ft 324 kts 184°
2026-04-26 15:51 9.98279 -79.16739 14087 ft 323 kts 184°
2026-04-26 15:51 9.96041 -79.16911 13689 ft 323 kts 185°
2026-04-26 15:51 9.93799 -79.17087 13289 ft 322 kts 184°
2026-04-26 15:52 9.91576 -79.17250 12986 ft 318 kts 184°
2026-04-26 15:52 9.89384 -79.17407 12677 ft 315 kts 184°
2026-04-26 15:52 9.87204 -79.17564 12354 ft 312 kts 184°
2026-04-26 15:52 9.85785 -79.17668 12144 ft 311 kts 184°
2026-04-26 15:53 9.82899 -79.17881 11715 ft 308 kts 184°
2026-04-26 15:53 9.80771 -79.18038 11389 ft 306 kts 184°
2026-04-26 15:53 9.78652 -79.18194 11074 ft 304 kts 184°
2026-04-26 15:53 9.76546 -79.18352 10752 ft 303 kts 184°
2026-04-26 15:54 9.74480 -79.18506 10432 ft 302 kts 184°
2026-04-26 15:54 9.72399 -79.18661 10207 ft 297 kts 184°
2026-04-26 15:54 9.70366 -79.18806 10076 ft 289 kts 183°
2026-04-26 15:54 9.68377 -79.18949 9847 ft 284 kts 184°
2026-04-26 15:55 9.66408 -79.19097 9522 ft 284 kts 184°
2026-04-26 15:55 9.64444 -79.19247 9180 ft 283 kts 184°
2026-04-26 15:55 9.62486 -79.19397 8880 ft 281 kts 184°
2026-04-26 15:55 9.60533 -79.19545 8573 ft 280 kts 184°
2026-04-26 15:56 9.58594 -79.19694 8269 ft 279 kts 184°
2026-04-26 15:56 9.56662 -79.19843 7973 ft 277 kts 184°
2026-04-26 15:56 9.54745 -79.19991 7685 ft 276 kts 184°
2026-04-26 15:56 9.52834 -79.20138 7389 ft 275 kts 184°
2026-04-26 15:57 9.50922 -79.20285 7088 ft 274 kts 184°
2026-04-26 15:57 9.49020 -79.20430 6791 ft 274 kts 184°
2026-04-26 15:57 9.47127 -79.20577 6508 ft 273 kts 184°
2026-04-26 15:57 9.45873 -79.20673 6309 ft 272 kts 184°
2026-04-26 15:58 9.43349 -79.20868 5885 ft 272 kts 184°
2026-04-26 15:58 9.41462 -79.21014 5586 ft 271 kts 184°
2026-04-26 15:58 9.39611 -79.21156 5299 ft 269 kts 184°
2026-04-26 15:58 9.37746 -79.21299 5016 ft 268 kts 184°
2026-04-26 15:59 9.35886 -79.21442 4707 ft 267 kts 184°
2026-04-26 15:59 9.34034 -79.21583 4408 ft 266 kts 184°
2026-04-26 15:59 9.32192 -79.21725 4145 ft 264 kts 184°
2026-04-26 15:59 9.30388 -79.21862 4001 ft 256 kts 184°
2026-04-26 16:00 9.28636 -79.21997 3856 ft 248 kts 184°
2026-04-26 16:00 9.26943 -79.22127 3753 ft 240 kts 184°
2026-04-26 16:00 9.25302 -79.22297 3617 ft 232 kts 194°
2026-04-26 16:00 9.23929 -79.23048 3498 ft 221 kts 221°
2026-04-26 16:01 9.22837 -79.24104 3364 ft 213 kts 224°
2026-04-26 16:01 9.21801 -79.25138 3219 ft 206 kts 225°
2026-04-26 16:01 9.20811 -79.26137 3059 ft 193 kts 225°
2026-04-26 16:01 9.19930 -79.27034 2914 ft 171 kts 225°
2026-04-26 16:02 9.19129 -79.27837 2736 ft 156 kts 225°
2026-04-26 16:02 9.18371 -79.28620 2504 ft 155 kts 225°
2026-04-26 16:02 9.17619 -79.29399 2131 ft 154 kts 225°
2026-04-26 16:02 9.17126 -79.29928 1943 ft 152 kts 230°
2026-04-26 16:03 9.16299 -79.31069 1728 ft 152 kts 236°
2026-04-26 16:03 9.15715 -79.31959 1638 ft 152 kts 237°
2026-04-26 16:03 9.15129 -79.32846 1498 ft 152 kts 235°
2026-04-26 16:03 9.14445 -79.33650 1340 ft 151 kts 226°
2026-04-26 16:04 9.13738 -79.34435 1238 ft 151 kts 228°
2026-04-26 16:04 9.12999 -79.35185 1048 ft 150 kts 221°
2026-04-26 16:04 9.12153 -79.35797 777 ft 148 kts 211°
2026-04-26 16:04 9.11274 -79.36324 552 ft 147 kts 210°
2026-04-26 16:05 9.10396 -79.36854 338 ft 146 kts 209°
2026-04-26 16:05 9.09542 -79.37370 160 ft 144 kts 210°
2026-04-26 16:05 9.08707 -79.37876 48 ft 129 kts 208°
2026-04-26 16:05 9.08111 -79.38232 49 ft 66 kts 211°
2026-04-26 16:06 9.07850 -79.38391 51 ft 30 kts 211°
2026-04-26 16:06 9.07700 -79.38435 51 ft 18 kts 141°
2026-04-26 16:06 9.07641 -79.38356 38 ft 12 kts 148°
2026-04-26 16:06 9.07557 -79.38390 37 ft 16 kts 214°
2026-04-26 16:07 9.07451 -79.38456 37 ft 20 kts 213°
2026-04-26 16:07 9.07359 -79.38512 37 ft 4 kts 209°
2026-04-26 16:07 9.07355 -79.38514 37 ft 2 kts 209°
2026-04-26 16:07 9.07340 -79.38523 37 ft 1 kts 209°
2026-04-26 16:08 9.07312 -79.38538 37 ft 8 kts 207°
2026-04-26 16:08 9.07272 -79.38559 36 ft 12 kts 205°
2026-04-26 16:08 9.07186 -79.38552 34 ft 6 kts 141°
2026-04-26 16:08 9.07172 -79.38542 34 ft 2 kts 143°
2026-04-26 16:09 9.07170 -79.38540 34 ft 0 kts 143°